Tracking 20036 objects as of 22-Nov-2019
Live streaming from Space Station
objects crossing your sky now

COSMOS 534

Track COSMOS 534 now!
10-day predictions
COSMOS 534 is classified as:


NORAD ID: 6269
Int'l Code: 1972-087G
Perigee: 1,355.3 km
Apogee: 1,475.0 km
Inclination: 74.0 °
Period: 114.0 minutes
Semi major axis: 7786 km
RCS: 0.7724 m2 (medium)
Launch date: November 1, 1972
Source: Commonwealth of Independent States (former USSR) (CIS)
Launch site: PLESETSK MISSILE AND SPACE COMPLEX (PKMTR)
aabbcc
Your satellite tracking list
Your tracking list is empty




NASA's NSSDC Master Catalog

Two Line Element Set (TLE):
1  6269U 72087G   19325.76750490 -.00000020 +00000-0 -18396-4 0  9990
2  6269 074.0360 068.4665 0076920 235.5663 280.9155 12.63627165170539
Source of the keplerian elements: AFSPC